This is the latest recevied weather packets stored in our database for station/object KK7ISX. If no packets are shown the sender has not sent any weather packets the latest 10 day(s).
| Time | Temp. | Humidity | Pressure | Rain* | Wind** | Luminosity | Snow |
|---|---|---|---|---|---|---|---|
| 1777762506 | 27.22° C | 21% | 1013.3 hPa | 0 mm | - | 297 W/m² | - |
| 1777762204 | 27.22° C | 19% | 1013.2 hPa | 0 mm | - | 458 W/m² | - |
| 1777761899 | 26.11° C | 20% | 1013.2 hPa | 0 mm | - | 487 W/m² | - |
| 1777761596 | 26.67° C | 21% | 1013.3 hPa | 0 mm | - | 363 W/m² | - |
| 1777761294 | 26.67° C | 21% | 1013.6 hPa | 0 mm | - | 373 W/m² | - |
| 1777760992 | 26.67° C | 21% | 1013.6 hPa | 0 mm | - | 375 W/m² | - |
| 1777760690 | 26.67° C | 22% | 1013.6 hPa | 0 mm | - | 296 W/m² | - |
| 1777760385 | 26.11° C | 22% | 1013.6 hPa | 0 mm | - | 328 W/m² | - |
| 1777760081 | 26.11° C | 22% | 1013.4 hPa | 0 mm | - | 335 W/m² | - |
| 1777759779 | 26.11° C | 21% | 1013.6 hPa | 0 mm | - | 422 W/m² | - |
| 1777759474 | 26.11° C | 22% | 1013.8 hPa | 0 mm | - | 410 W/m² | - |
| 1777759171 | 26.11° C | 22% | 1013.8 hPa | 0 mm | - | 471 W/m² | - |
| 1777758869 | 26.11° C | 22% | 1014.2 hPa | 0 mm | - | 311 W/m² | - |
| 1777758565 | 26.11° C | 22% | 1014.2 hPa | 0 mm | - | 361 W/m² | - |
| 1777758262 | 26.67° C | 22% | 1014.2 hPa | 0 mm | - | 381 W/m² | - |
| 1777757960 | 26.67° C | 22% | 1014.4 hPa | 0 mm | - | 600 W/m² | - |
| 1777757656 | 26.67° C | 22% | 1014.2 hPa | 0 mm | - | 629 W/m² | - |
| 1777757355 | 27.22° C | 22% | 1014.2 hPa | 0 mm | - | 662 W/m² | - |
| 1777757054 | 26.11° C | 22% | 1014.3 hPa | 0 mm | - | 602 W/m² | - |
| 1777756750 | 26.67° C | 23% | 1014.3 hPa | 0 mm | - | 632 W/m² | - |
| 1777756445 | 27.22° C | 23% | 1014.5 hPa | 0 mm | - | 714 W/m² | - |
| 1777756143 | 27.22° C | 24% | 1014.5 hPa | 0 mm | - | 681 W/m² | - |
| 1777755840 | 27.22° C | 23% | 1014.6 hPa | 0 mm | - | 692 W/m² | - |
| 1777755537 | 26.67° C | 25% | 1014.7 hPa | 0 mm | - | 720 W/m² | - |
| 1777755233 | 26.11° C | 22% | 1014.8 hPa | 0 mm | - | 703 W/m² | - |
* Rain latest hour (hover to see other rain measurements)
** Current wind speed in m/s (hover to see current wind gust speed)